La Grande, OR

12:28 PM PDT on October 18, 2019 (GMT -0700)
La Grande-Union County

Weather History for KLGD - August, 2019

Change the Weather History Date:

Wednesday, August 7, 2019

  Actual Average Record
Temperature  
Mean Temperature 74 °F -  
Max Temperature 91 °F 85 °F 102 °F (2012)
Min Temperature 57 °F 49 °F 39 °F (1996)
Cooling Degree Days 9    
Growing Degree Days 24 (Base 50)    
Moisture  
Dew Point 50 °F    
Average Humidity 41    
Maximum Humidity 63    
Minimum Humidity 21    
Precipitation  
Precipitation 0.01 in - - ()
Sea Level Pressure  
Sea Level Pressure 30.23 in    
Wind  
Wind Speed 6 mph (West)    
Max Wind Speed 20 mph    
Max Gust Speed 30 mph    
Visibility 10 miles    
Events Thunderstorm    
Averages and records for this station are not official NWS values.
T = Trace of Precipitation, MM = Missing Value Source: NWS Daily Summary

Daily Weather History Graph

Daily Weather History Graph

Search for Another Location

Airport or City:

Astronomy

Aug. 07, 2019 Rise Set
Actual Time 5:43 AM PDT 8:11 PM PDT
Civil Twilight 5:10 AM PDT 8:44 PM PDT
Nautical Twilight 4:28 AM PDT 9:25 PM PDT
Astronomical Twilight 3:41 AM PDT 10:12 PM PDT
Moon 1:42 PM PDT (8/7) No Moon Set
Length of Visible Light 15h 34m
Length of Day
14h 27m
Waxing Crescent, 51% of the Moon is Illuminated
Aug 7
Waxing Crescent
Aug 15
Full
Aug 23
Last Quarter
Aug 30
New
Sep 5
First Quarter

Hourly Weather History & Observations

Time (PDT) Temp. Heat Index Dew Point Humidity Pressure Visibility Wind Dir Wind Speed Gust Speed Precip Events Conditions
12:56 AM 73.0 °F - 48.0 °F 41% 30.32 in 10.0 mi NNW 8.1 mph - N/A   Clear
1:56 AM 73.0 °F - 46.9 °F 39% 30.32 in 10.0 mi WNW 8.1 mph - N/A   Clear
2:56 AM 63.0 °F - 46.0 °F 54% 30.33 in 10.0 mi East 3.5 mph - N/A   Clear
3:56 AM 63.0 °F - 46.9 °F 56% 30.34 in 10.0 mi WSW 3.5 mph - N/A   Clear
4:56 AM 57.9 °F - 45.0 °F 62% 30.35 in 10.0 mi SE 4.6 mph - N/A   Clear
5:56 AM 59.0 °F - 45.0 °F 60% 30.35 in 10.0 mi SW 3.5 mph - N/A   Clear
6:56 AM 61.0 °F - 46.9 °F 60% 30.36 in 10.0 mi Calm Calm - N/A   Clear
7:56 AM 69.1 °F - 48.9 °F 49% 30.37 in 10.0 mi East 3.5 mph - N/A   Clear
8:56 AM 75.0 °F - 46.9 °F 37% 30.36 in 10.0 mi Variable 4.6 mph - N/A   Clear
9:56 AM 78.1 °F - 48.0 °F 35% 30.36 in 10.0 mi Variable 3.5 mph - N/A   Clear
10:56 AM 84.9 °F - 48.9 °F 29% 30.35 in 10.0 mi Variable 3.5 mph - N/A   Clear
11:56 AM 89.1 °F - 48.9 °F 25% 30.33 in 10.0 mi Variable 3.5 mph - N/A   Clear
12:56 PM 88.0 °F - 48.9 °F 26% 30.32 in 10.0 mi NNW 3.5 mph - N/A   Clear
1:56 PM 90.0 °F - 48.0 °F 24% 30.30 in 10.0 mi NW 5.8 mph - N/A   Partly Cloudy
2:44 PM 91.4 °F - 46.4 °F 21% 29.89 in 10.0 mi West 8.1 mph - N/A Thunderstorm Clear
2:56 PM 91.0 °F - 48.0 °F 23% 30.29 in 10.0 mi West 3.5 mph - N/A Thunderstorm Partly Cloudy
3:03 PM 91.4 °F - 46.4 °F 21% 29.88 in 10.0 mi NNW 4.6 mph - N/A   Partly Cloudy
3:35 PM 87.8 °F - 50.0 °F 27% 29.89 in 10.0 mi WNW 19.6 mph - N/A Thunderstorm Clear
3:56 PM 84.9 °F - 52.0 °F 32% 30.30 in 9.0 mi West 19.6 mph 29.9 mph N/A Thunderstorm Thunderstorm
4:08 PM 82.4 °F 81.4 °F 53.6 °F 37% 29.90 in 10.0 mi WNW 15.0 mph - N/A Thunderstorm Partly Cloudy
4:32 PM 82.4 °F - 51.8 °F 35% 29.91 in 10.0 mi WNW 16.1 mph - N/A   Partly Cloudy
4:56 PM 82.9 °F - 52.0 °F 34% 30.30 in 10.0 mi NW 10.4 mph - N/A   Scattered Clouds
5:46 PM 82.4 °F - 51.8 °F 35% 29.91 in 10.0 mi SSW 8.1 mph - N/A Thunderstorm Thunderstorm
5:56 PM 82.9 °F - 51.1 °F 33% 30.33 in 10.0 mi SW 9.2 mph - N/A Thunderstorm Thunderstorm
6:41 PM 78.8 °F - 55.4 °F 44% 29.91 in 10.0 mi South 5.8 mph - 0.01 in   Clear
6:56 PM 80.1 °F 80.7 °F 59.0 °F 48% 30.31 in 10.0 mi North - - 0.01 in   Clear
7:56 PM 75.0 °F - 55.9 °F 51% 30.31 in 10.0 mi North - - N/A   Clear
8:56 PM 72.0 °F - 52.0 °F 49% 30.33 in 10.0 mi WNW 3.5 mph - N/A   Clear
9:56 PM 71.1 °F - 53.1 °F 53% 30.33 in 10.0 mi Calm Calm - N/A   Clear
10:56 PM 66.0 °F - 53.1 °F 63% 30.35 in 10.0 mi SW 6.9 mph - N/A   Clear
11:56 PM 64.9 °F - 51.1 °F 61% 30.35 in 10.0 mi Calm Calm - N/A   Clear